User: anonymous   Login
Location: Mercogliano
(40.9167°N, 14.7333°E)
Time: 02:19:21
(UTC+00:00)
Language:

Cosmos 1125 Rocket - Orbit

View from above orbital plane
View from above orbital plane
View from above satellite
View from above satellite

Ground track
Ground track

The orbit data is extracted from the following two-line orbital elements,

1 11511U 79078B   20335.54076523 +.00000138 +00000-0 +55527-4 0  9995
2 11511 074.0345 154.8349 0014573 090.2228 270.0595 14.36908034159631
Epoch (UTC): 30 November 2020 12:58:42
Eccentricity: 0.0014573
inclination: 74.0345°
perigee height: 758 km
apogee height: 779 km
right ascension of ascending node: 154.8349°
argument of perigee: 90.2228°
revolutions per day: 14.36908034
mean anomaly at epoch: 270.0595°
orbit number at epoch: 15963

The dashed part of the orbit path shows where the satellite is in the earth's shadow,  

DLR